[[{"header":{"parameterUnit":"m.s-1","parameterCategory":1,"la1":30.2991,"la2":30.254,"lo1":-89.0895,"lo2":-89.0444,"dy":0.0017,"dx":0.0017,"nx":28,"ny":28,"refTime":"2025-11-30T09:00:00:Z","depth":0,"parameterNumber":2,"parameterNumberName":"U-component_of_WINDS"},"data":[0,0,0,0,0,0,0,0,0,0,0,0,0,0,0,0,0,0,0,0,0,0,0,0,0,0,0,0,0,0,0,0,0,0,0,0,0,0,0,0,0,0,0,0,0,0,0,0,0,0,0,0,0,0,0,0,0,0,-3.7061,-3.7062,0,-3.7101,-3.7101,-3.7102,-3.697,-3.6966,-3.6962,-3.6958,-3.7002,-3.7007,-3.7012,0,0,0,0,0,0,0,0,0,0,0,0,0,-3.6875,-3.6879,-3.7061,-3.7062,-3.7062,-3.7101,-3.7101,-3.7102,-3.697,-3.6965,-3.6961,-3.6956,-3.7,-3.7006,-3.7012,0,0,0,0,0,0,0,0,0,0,0,0,0,-3.694,-3.6881,-3.7061,-3.7001,-3.6996,-3.7101,-3.7101,-3.7102,-3.6971,-3.6965,-3.6959,-3.6954,-3.6998,-3.7006,-3.7013,-3.7178,0,0,-3.7035,-3.7039,0,0,0,0,0,0,0,0,-3.6936,-3.6947,-3.7009,-3.7005,-3.7,-3.7024,-3.7052,-3.7128,-3.6973,-3.6981,-3.6958,-3.6951,-3.7014,-3.702,-3.7041,-3.718,-3.7182,-3.7036,-3.704,-3.7044,-3.7046,0,0,0,0,0,0,0,-3.6932,-3.6944,-3.7077,-3.7011,-3.7005,-3.6973,-3.6976,-3.7065,-3.7031,-3.698,-3.697,-3.6976,-3.7011,-3.7034,-3.7041,-3.7183,-3.7036,-3.7042,-3.7047,-3.705,-3.746,-3.7466,0,0,0,0,0,0,-3.6935,-3.6941,-3.7076,-3.7078,-3.6953,-3.6982,-3.6984,-3.7022,-3.7029,-3.7025,-3.6982,-3.697,-3.7024,-3.7032,-3.7042,-3.7236,-3.7044,-3.705,-3.7055,-3.7454,-3.7462,-3.7469,0,0,0,0,0,0,-3.6931,-3.6948,-3.7074,-3.7007,-3.7021,-3.6991,-3.7035,-3.7026,-3.7049,-3.7031,-3.7024,-3.7011,-3.702,-3.7032,-3.7145,-3.7236,-3.7054,-3.706,-3.7446,-3.7456,-3.7465,-3.7626,0,0,0,0,0,0,-3.6927,-3.6948,-3.7009,-3.7009,-3.7025,-3.7176,-3.704,-3.7031,-3.7062,-3.7047,-3.7057,-3.7053,-3.7016,-3.7135,-3.7152,-3.7242,-3.7066,-3.7438,-3.7451,-3.7462,-3.7612,-3.764,-3.7663,0,0,0,0,0,-3.692,-3.7054,-3.7013,-3.703,-3.7101,-3.7181,-3.719,-3.7144,-3.707,-3.7132,-3.712,-3.7053,-3.7223,-3.7148,-3.7166,-3.726,-3.7432,-3.7447,-3.7461,-3.7601,-3.7634,-3.7663,0,0,0,0,0,0,-3.7066,-3.7052,-3.7007,-3.7144,-3.7165,-3.7159,-3.7236,-3.7181,-3.7224,-3.7209,-3.715,-3.7154,-3.7278,-3.728,-3.7197,-3.742,-3.7315,-3.7334,-3.7415,-3.7446,-3.7471,-3.7468,-3.7072,0,0,0,0,0,-3.7114,-3.7179,-3.7164,-3.7287,-3.7299,-3.7266,-3.73,-3.7262,-3.7281,-3.729,-3.7286,-3.7309,-3.7367,-3.7407,-3.7459,-3.7612,-3.7612,-3.7685,-3.7711,-3.7732,-3.7749,-3.7831,-3.7863,-3.7517,-3.7517,-3.7516,0,0,-3.7214,-3.7214,-3.7259,-3.7316,-3.7327,-3.7397,-3.7274,-3.7354,-3.7405,-3.7302,-3.7408,-3.7407,-3.7428,-3.7562,-3.7621,-3.7568,-3.7845,-3.7751,-3.7768,-3.7774,-3.7849,-3.7882,-3.7911,-3.7527,-3.7525,-3.7523,0,0,-3.7431,-3.7438,-3.7541,-3.7555,-3.7573,-3.7551,-3.7576,-3.7578,-3.7573,-3.7679,-3.7603,-3.7664,-3.7766,-3.7784,-3.7807,-3.8032,-3.7972,-3.8051,-3.8185,-3.8265,-3.8292,-3.8316,-3.8397,-3.8426,-3.8068,-3.8069,-3.8069,0,-3.7553,-3.7655,-3.7601,-3.7686,-3.7713,-3.7622,-3.7726,-3.7742,-3.7778,-3.78,-3.7739,-3.7865,-3.7873,-3.801,-3.8065,-3.8086,-3.8114,-3.805,-3.8292,-3.8315,-3.8337,-3.8413,-3.8444,-3.8078,-3.8077,-3.8076,-3.8075,0,-3.7804,-3.7876,-3.7957,-3.7992,-3.8029,-3.8123,-3.8085,-3.8128,-3.8088,-3.8072,-3.8182,-3.8188,-3.824,-3.827,-3.8232,-3.8403,-3.8369,-3.8302,-3.8194,-3.838,-3.8451,-3.848,-3.8092,-3.8088,-3.8085,-3.8083,0,0,-3.8114,-3.8119,-3.815,-3.8165,-3.8179,-3.8234,-3.8324,-3.8374,-3.8413,-3.8441,-3.8516,-3.8604,-3.8542,-3.8568,-3.8531,-3.8601,-3.878,-3.8525,-3.8524,-3.8572,-3.8969,-3.9019,-3.9054,-3.874,-3.8745,-3.8749,-3.8967,0,-3.8328,-3.8482,-3.8437,-3.8591,-3.8657,-3.8572,-3.8651,-3.8669,-3.8657,-3.8711,-3.8698,-3.8762,-3.8674,-3.8689,-3.8755,-3.8744,-3.8859,-3.8728,-3.881,-3.8814,-3.8807,-3.9091,-3.9145,-3.9349,-3.8994,-3.8999,-3.9002,0,-3.8599,-3.8636,-3.8797,-3.88,-3.8826,-3.8898,-3.894,-3.8994,-3.9013,-3.8999,-3.9028,-3.8977,-3.9067,-3.8959,-3.9083,-3.8995,-3.9026,-3.9026,-3.9033,-3.9039,-3.8919,-3.9105,-3.9414,-3.9445,-3.9045,-3.9042,-3.9039,0,-3.8809,-3.89,-3.9008,-3.9024,-3.903,-3.9083,-3.9088,-3.9101,-3.9134,-3.9172,-3.9193,-3.9241,-3.9268,-3.9307,-3.9271,-3.9195,-3.9401,-3.929,-3.9392,-3.9394,-3.9439,-3.9437,-3.9758,-3.946,-3.9459,-3.9459,-3.9458,0,-3.9053,-3.9155,-3.9103,-3.9169,-3.9281,-3.9229,-3.9342,-3.9337,-3.935,-3.9415,-3.9344,-3.9407,-3.9355,-3.9414,-3.9386,-3.9493,-3.9506,-3.9498,-3.949,-3.9504,-3.9506,-3.9524,-3.9509,-3.9467,-3.9465,-3.9463,-3.9462,0,-3.9307,-3.9276,-3.9388,-3.9385,-3.9387,-3.9469,-3.9467,-3.9529,-3.9512,-3.9595,-3.9612,-3.9585,-3.965,-3.9618,-3.9686,-3.9668,-3.9806,-3.9778,-3.9799,-3.9792,-3.9897,-3.9887,-4.024,-4.0284,-3.9959,-3.9962,-3.9964,0,-3.9465,-3.9541,-3.9546,-3.9584,-3.9594,-3.9656,-3.9689,-3.9641,-3.9679,-3.9706,-3.9766,-3.9825,-3.9869,-3.9978,-3.9965,-4.0018,-3.9991,-4.0111,-3.9998,-4.0011,-3.9993,-3.9988,-3.9996,-4.0134,-4.0137,-4.0141,-4.0143,0,-3.9748,-3.9729,-3.9778,-3.9824,-3.9866,-3.9899,-3.9927,-3.9963,-3.9915,-3.9962,-4.0027,-4.0062,-4.0131,-4.0191,-4.0236,-4.0242,-4.0186,-4.0179,-4.0205,-4.0221,-4.023,-4.0227,-3.9861,-4.0171,-4.0168,-4.0166,-4.0164,-4.0163,-3.9958,-4.0022,-4.0035,-4.0094,-4.011,-4.0137,-4.0195,-4.0185,-4.0238,-4.029,-4.0259,-4.0336,-4.0354,-4.0408,-4.0423,-4.0483,-4.0435,-4.0474,-4.0483,-4.0494,-4.0508,-4.0221,-4.0491,-4.049,-4.0489,-4.0489,-4.0488,0,-4.0237,-4.0242,-4.0296,-4.0337,-4.0383,-4.0325,-4.0352,-4.0395,-4.0464,-4.0484,-4.0529,-4.0605,-4.0663,-4.0655,-4.0708,-4.0758,-4.0733,-4.0774,-4.0769,-4.0772,-4.0547,-4.0519,-4.0793,-4.0792,-4.0792,-4.0792,-4.0792,-4.0792,-4.0388,-4.0493,-4.0476,-4.0589,-4.0592,-4.0666,-4.0687,-4.0713,-4.0729,-4.0816,-4.0863,-4.0857,-4.0867,-4.092,-4.0971,-4.0967,-4.099,-4.104,-4.1027,-4.0818,-4.0788,-4.0759,-4.0732,-4.1046,-4.1046,-4.1247,-4.1249,-4.125]},{"header":{"parameterUnit":"m.s-1","parameterCategory":1,"la1":30.2991,"la2":30.254,"lo1":-89.0895,"lo2":-89.0444,"dy":0.0017,"dx":0.0017,"nx":28,"ny":28,"refTime":"2025-11-30T09:00:00:Z","depth":0,"parameterNumber":3,"parameterNumberName":"V-component_of_WINDS"},"data":[0,0,0,0,0,0,0,0,0,0,0,0,0,0,0,0,0,0,0,0,0,0,0,0,0,0,0,0,0,0,0,0,0,0,0,0,0,0,0,0,0,0,0,0,0,0,0,0,0,0,0,0,0,0,0,0,0,0,-1.5527,-1.5527,0,-1.5523,-1.5523,-1.5523,-1.5484,-1.5483,-1.5482,-1.5481,-1.5479,-1.548,-1.548,0,0,0,0,0,0,0,0,0,0,0,0,0,-1.5502,-1.5502,-1.5527,-1.5527,-1.5527,-1.5523,-1.5523,-1.5523,-1.5484,-1.5483,-1.5482,-1.5481,-1.5479,-1.548,-1.5481,0,0,0,0,0,0,0,0,0,0,0,0,0,-1.5507,-1.5503,-1.5527,-1.5507,-1.5505,-1.5523,-1.5523,-1.5523,-1.5484,-1.5483,-1.5482,-1.548,-1.5478,-1.5479,-1.5481,-1.5518,0,0,-1.5485,-1.5485,0,0,0,0,0,0,0,0,-1.5506,-1.5508,-1.551,-1.5508,-1.5506,-1.5502,-1.5513,-1.5521,-1.5485,-1.5492,-1.5481,-1.5479,-1.5488,-1.5488,-1.5491,-1.5518,-1.5517,-1.5485,-1.5485,-1.5486,-1.5486,0,0,0,0,0,0,0,-1.5506,-1.5508,-1.5525,-1.551,-1.5508,-1.5498,-1.5498,-1.5514,-1.5499,-1.5492,-1.5489,-1.5489,-1.5487,-1.549,-1.549,-1.5517,-1.5485,-1.5486,-1.5486,-1.5487,-1.5572,-1.5574,0,0,0,0,0,0,-1.5508,-1.5508,-1.5526,-1.5525,-1.5503,-1.55,-1.5499,-1.5505,-1.5498,-1.5496,-1.549,-1.5487,-1.5488,-1.5489,-1.549,-1.5532,-1.5486,-1.5487,-1.5488,-1.5571,-1.5573,-1.5574,0,0,0,0,0,0,-1.5508,-1.551,-1.5526,-1.5516,-1.5517,-1.5502,-1.5509,-1.5506,-1.5509,-1.5497,-1.5494,-1.5496,-1.5487,-1.5488,-1.5511,-1.5532,-1.5488,-1.5489,-1.5569,-1.5572,-1.5574,-1.5617,0,0,0,0,0,0,-1.5507,-1.5511,-1.5525,-1.5516,-1.5518,-1.5546,-1.5511,-1.5507,-1.5511,-1.5507,-1.5502,-1.55,-1.5486,-1.5509,-1.5512,-1.5533,-1.549,-1.5567,-1.557,-1.5573,-1.5614,-1.5621,-1.5626,0,0,0,0,0,-1.5507,-1.5538,-1.5525,-1.5528,-1.5535,-1.5548,-1.5548,-1.5532,-1.5513,-1.5527,-1.5519,-1.55,-1.5529,-1.5512,-1.5515,-1.5536,-1.5566,-1.5569,-1.5573,-1.5611,-1.5619,-1.5626,0,0,0,0,0,0,-1.555,-1.5536,-1.5523,-1.5552,-1.5551,-1.5541,-1.5558,-1.5541,-1.5547,-1.5543,-1.5522,-1.5521,-1.5547,-1.5543,-1.5525,-1.557,-1.5544,-1.5548,-1.5572,-1.558,-1.5586,-1.5586,-1.5491,0,0,0,0,0,-1.5563,-1.5574,-1.5562,-1.5589,-1.5589,-1.5574,-1.5579,-1.5566,-1.5564,-1.5564,-1.5558,-1.5557,-1.5566,-1.5573,-1.558,-1.5613,-1.5611,-1.5629,-1.5635,-1.564,-1.5644,-1.566,-1.5668,-1.5586,-1.5586,-1.5586,0,0,-1.559,-1.5584,-1.5592,-1.5597,-1.5595,-1.5607,-1.5574,-1.5588,-1.5597,-1.5566,-1.5587,-1.5582,-1.558,-1.5607,-1.5619,-1.5605,-1.5666,-1.5645,-1.5649,-1.565,-1.5664,-1.5672,-1.5679,-1.5588,-1.5588,-1.5587,0,0,-1.5645,-1.5642,-1.5663,-1.5661,-1.5658,-1.5647,-1.5652,-1.5644,-1.564,-1.5659,-1.5636,-1.5646,-1.5662,-1.5661,-1.5663,-1.5716,-1.5698,-1.5719,-1.5752,-1.5768,-1.5774,-1.578,-1.5798,-1.5805,-1.5722,-1.5723,-1.5723,0,-1.568,-1.5697,-1.5677,-1.5692,-1.5695,-1.5666,-1.5687,-1.5686,-1.5686,-1.5688,-1.5673,-1.5691,-1.5688,-1.5714,-1.5726,-1.5729,-1.5734,-1.572,-1.5775,-1.578,-1.5785,-1.5802,-1.5809,-1.5725,-1.5725,-1.5725,-1.5724,0,-1.5738,-1.575,-1.5768,-1.5767,-1.5771,-1.579,-1.5773,-1.5779,-1.5765,-1.5756,-1.5776,-1.5771,-1.5776,-1.5781,-1.5768,-1.5805,-1.5796,-1.5778,-1.5751,-1.5796,-1.5811,-1.5818,-1.5729,-1.5728,-1.5727,-1.5726,0,0,-1.5823,-1.5809,-1.5816,-1.5814,-1.5807,-1.5816,-1.5833,-1.5837,-1.5843,-1.5843,-1.5856,-1.5869,-1.5852,-1.5854,-1.584,-1.5854,-1.5895,-1.5833,-1.5833,-1.5845,-1.5934,-1.5948,-1.5956,-1.5883,-1.5884,-1.5885,-1.5934,0,-1.5876,-1.5903,-1.5885,-1.5915,-1.5925,-1.5897,-1.5911,-1.5909,-1.59,-1.5907,-1.5898,-1.5907,-1.5883,-1.5884,-1.5896,-1.5887,-1.5912,-1.5883,-1.5895,-1.5895,-1.5896,-1.5964,-1.598,-1.6026,-1.594,-1.5941,-1.5942,0,-1.5942,-1.5944,-1.5975,-1.5964,-1.5967,-1.5981,-1.5982,-1.599,-1.5985,-1.5978,-1.5979,-1.5961,-1.5977,-1.5949,-1.5969,-1.595,-1.5953,-1.5949,-1.5951,-1.5952,-1.5922,-1.5967,-1.6041,-1.6048,-1.5951,-1.5951,-1.595,0,-1.6,-1.601,-1.6029,-1.6029,-1.6017,-1.6027,-1.6022,-1.6017,-1.602,-1.6021,-1.6023,-1.6026,-1.6028,-1.6031,-1.6014,-1.5996,-1.6037,-1.6008,-1.6031,-1.6031,-1.6042,-1.6041,-1.6117,-1.6043,-1.6043,-1.6043,-1.6043,0,-1.6062,-1.6082,-1.6055,-1.6067,-1.6088,-1.6067,-1.6088,-1.6081,-1.6075,-1.6085,-1.6061,-1.6071,-1.6048,-1.6056,-1.6043,-1.6061,-1.6062,-1.6057,-1.6053,-1.6059,-1.606,-1.6062,-1.6058,-1.6045,-1.6045,-1.6044,-1.6044,0,-1.6131,-1.6114,-1.6133,-1.6119,-1.6116,-1.6133,-1.6121,-1.6131,-1.612,-1.6133,-1.6134,-1.6117,-1.6124,-1.6108,-1.6113,-1.6104,-1.613,-1.6121,-1.6132,-1.6129,-1.6153,-1.6151,-1.6233,-1.6242,-1.6162,-1.6163,-1.6164,0,-1.6172,-1.6186,-1.6173,-1.6178,-1.6174,-1.6182,-1.6184,-1.6162,-1.6166,-1.6161,-1.6172,-1.6177,-1.618,-1.6192,-1.6181,-1.6184,-1.6175,-1.6203,-1.6176,-1.6181,-1.6175,-1.6175,-1.6176,-1.621,-1.6211,-1.6211,-1.6212,0,-1.6246,-1.6236,-1.624,-1.6241,-1.6244,-1.6244,-1.6242,-1.6247,-1.6223,-1.6229,-1.6235,-1.6237,-1.6241,-1.6246,-1.6247,-1.6242,-1.6223,-1.6221,-1.6226,-1.6233,-1.6238,-1.6235,-1.6147,-1.6219,-1.6218,-1.6218,-1.6218,-1.6217,-1.6302,-1.6313,-1.6305,-1.6309,-1.6305,-1.6304,-1.6312,-1.6301,-1.6306,-1.6307,-1.6294,-1.6303,-1.6296,-1.6295,-1.6292,-1.6298,-1.6285,-1.6294,-1.6296,-1.6298,-1.6302,-1.6236,-1.6298,-1.6298,-1.6298,-1.6298,-1.6298,0,-1.6374,-1.6367,-1.6371,-1.6368,-1.6372,-1.6352,-1.6349,-1.6353,-1.6361,-1.6356,-1.6359,-1.6366,-1.637,-1.6357,-1.6359,-1.6367,-1.6358,-1.6368,-1.6368,-1.6367,-1.6313,-1.6308,-1.6375,-1.6375,-1.6375,-1.6375,-1.6375,-1.6375,-1.6412,-1.6429,-1.6418,-1.6432,-1.6425,-1.6433,-1.6432,-1.643,-1.6426,-1.6434,-1.6437,-1.6428,-1.642,-1.6421,-1.6424,-1.642,-1.6422,-1.6435,-1.6428,-1.6379,-1.6371,-1.6364,-1.6359,-1.6436,-1.6436,-1.6481,-1.6482,-1.6482]}]]